Meteo Giornale » Osservazioni meteo Italia » Cuneo-Levaldigi

ore: 09:50 - Osservazioni Meteo Cuneo-Levaldigi
Lat. 44° 32' N Lon. 7° 37' E Alt. 396 metri s.l.m.

molto_nuvoloso Europe/Rome

17 °C

Molto Nuvoloso

Temp. 24 Ore

14 °C

22 °C

Nord

3.7 Km/h

Dew point 16 °C

Umidità 93 %

Visibilità  10 Km

Il sole sorge alle ore 07:15

Il sole tramonta alle ore 19:28

Data e Ora Cielo e Fenomeni T °C DP °C Um. % Pres. hPa Vis. km Vento km/h
Oggi h: 09:50 molto_nuvoloso Molto Nuvoloso 17 16 93 1016 10 N 3.7
Oggi h: 09:20 nuvoloso Nuvoloso 16 15 93 1016 10 N 1.8
Oggi h: 08:50 sereno Sereno 15 15 100 1015 10 N 3.7
Oggi h: 08:20 molto_nuvoloso Molto Nuvoloso 14 14 100 1016 10 S/SO 7.4
Oggi h: 07:20 nuvoloso Nuvoloso 14 13 93 1015 10 N 3.7
Oggi h: 06:50 molto_nuvoloso Molto Nuvoloso 14 14 100 1015 10 N 1.8
Oggi h: 06:20 coperto Coperto 14 14 100 1015 10 N 3.7
Oggi h: 05:50 molto_nuvoloso Molto Nuvoloso 14 14 100 1015 10 N 3.7
Oggi h: 05:20 nuvoloso Nuvoloso 14 14 100 1015 10 N 5.5
Oggi h: 04:50 nuvoloso Nuvoloso 14 14 100 1015 10 N 5.5
Oggi h: 04:20 molto_nuvoloso Molto Nuvoloso 14 14 100 1016 10 N 3.7
Oggi h: 03:50 nuvoloso Nuvoloso 14 14 100 1016 10 N 5.5
Oggi h: 03:20 molto_nuvoloso Molto Nuvoloso 15 15 100 1016 10 N 3.7
Oggi h: 02:50 molto_nuvoloso Molto Nuvoloso 16 16 100 1016 10 N 3.7
Oggi h: 02:20 molto_nuvoloso Molto Nuvoloso 17 16 93 1016 10 N 3.7
Oggi h: 01:50 coperto Coperto 17 16 93 1017 10 N 5.5
Oggi h: 01:20 molto_nuvoloso Molto Nuvoloso 17 16 93 1017 9 S/SO 7.4
Oggi h: 00:50 molto_nuvoloso Molto Nuvoloso 17 16 93 1017 8 N 1.8
Oggi h: 00:20 coperto_pioggia Pioggia Debole 17 17 100 1017 7 N 1.8
Ieri h: 23:50 molto_nuvoloso Molto Nuvoloso 17 16 93 1017 6 N 1.8
Ieri h: 23:20 coperto Coperto 17 17 100 1017 6 N 1.8
Ieri h: 22:50 molto_nuvoloso Molto Nuvoloso 17 17 100 1017 8 N 3.7
Ieri h: 22:20 molto_nuvoloso Molto Nuvoloso 17 17 100 1017 9 N 3.7
Ieri h: 21:50 molto_nuvoloso Molto Nuvoloso 18 16 88 1017 10 N 0
Ieri h: 21:20 molto_nuvoloso Molto Nuvoloso 18 16 88 1017 10 N 3.7
Ieri h: 20:50 coperto Coperto 18 17 93 1017 10 N 3.7
Ieri h: 20:20 coperto Coperto 18 17 93 1017 10 N 1.8
Ieri h: 19:20 molto_nuvoloso Molto Nuvoloso 18 16 88 1016 10 N 5.5
Ieri h: 18:50 poco_nuvoloso Poco Nuvoloso 19 16 82 1016 10 N 5.5
Ieri h: 17:50 sereno Sereno 22 14 60 1016 10 N 0
Ieri h: 17:20 sereno Sereno 21 14 64 1016 10 N 3.7
Ieri h: 16:20 nuvoloso Nuvoloso 21 16 73 1016 10 N 3.7
Ieri h: 15:50 poco_nuvoloso Poco Nuvoloso 21 16 73 1017 10 N 5.5
Ieri h: 15:20 sereno Sereno 20 15 72 1017 10 N 1.8
Ieri h: 14:50 poco_nuvoloso Poco Nuvoloso 20 16 77 1017 10 N 3.7
Ieri h: 14:20 molto_nuvoloso Molto Nuvoloso 20 17 82 1017 10 N 3.7
Ieri h: 13:50 molto_nuvoloso Molto Nuvoloso 18 16 88 1018 10 N 3.7
Ieri h: 13:20 molto_nuvoloso Molto Nuvoloso 17 16 93 1018 10 N 5.5
Ieri h: 12:50 coperto_pioggia Pioggia Debole 17 16 93 1018 10 N 5.5
Ieri h: 12:20 coperto_pioggia Pioggia Debole 17 16 93 1018 10 N/NO 7.4
Ieri h: 11:20 molto_nuvoloso Molto Nuvoloso 17 15 88 1018 10 N 9.3
Ieri h: 10:50 coperto Coperto 17 16 93 1018 10 N 11.1